Stations météo

réclame
Mon MeteoGroup
Lille, France (7015): Température de l'air & dewpoint: 06.11.2019 00:00:00 - 12.11.2019 00:00:00 (CET)Lille, France (7015): Température de l'air 5cm: 06.11.2019 00:00:00 - 12.11.2019 00:00:00 (CET)Lille, France (7015): Température de l'air -20cm & Température de l'air -100cm: 06.11.2019 00:00:00 - 12.11.2019 00:00:00 (CET)Lille, France (7015): Vitesse du vent & gusts: 06.11.2019 00:00:00 - 12.11.2019 00:00:00 (CET)Lille, France (7015): Direction du vent: 06.11.2019 00:00:00 - 12.11.2019 00:00:00 (CET)Lille, France (7015): reduced air pressure: 06.11.2019 00:00:00 - 12.11.2019 00:00:00 (CET)Lille, France (7015): visibility: 06.11.2019 00:00:00 - 12.11.2019 00:00:00 (CET)Lille, France (7015): Quantités de précipitations: 06.11.2019 00:00:00 - 12.11.2019 00:00:00 (CET)
Date & Time tt [°C] td [°C] tt 5cm [°C] tt -20cm [°C] tt -100cm [°C] ff [km/h] ff [knt] fx [km/h] fx [knt] dd ppp [hPa] vv [km] rr [mm]
12.11.2019 00:00:00 5,5 3,2 4,7 6,7 12,0 28 15 43 23 SSW 1003,5 57 0,0
11.11.2019 23:00:00 5,3 3,3 4,5 6,8 12,1 22 12 37 20 SSW 1003,3 41 0,0
11.11.2019 22:00:00 4,8 3,3 3,4 6,9 12,1 19 10 26 14 S 1003,3 33 0,0
11.11.2019 21:00:00 4,2 2,4 3,3 7,1 12,1 14 8 20 11 S 1003,3 38 0,0
11.11.2019 20:00:00 4,3 2,8 3,2 7,3 12,1 13 7 18 10 SSW 1003,2 32 0,0
11.11.2019 19:00:00 5,1 3,1 4,0 7,5 12,1 11 6 22 12 SSW 1003,1 33 0,0
11.11.2019 18:00:00 5,9 3,6 5,0 7,7 12,1 15 8 22 12 SW 1002,5 38 0,0
11.11.2019 17:00:00 6,9 3,9 6,3 7,8 12,2 18 10 24 13 SW 1002,0 54 0,0
11.11.2019 16:00:00 8,0 4,6 7,0 7,7 12,1 16 9 37 20 WSW 1001,8 51 0,0
11.11.2019 15:00:00 8,0 4,6 7,4 7,6 12,2 23 13 34 19 W 1001,6 30 0,0
11.11.2019 14:00:00 7,6 6,2 6,6 7,5 12,2 18 10 40 22 SSW 1001,5 20 0,0
11.11.2019 13:00:00 6,8 5,4 6,1 7,3 12,2 29 16 53 28 S 1001,4 31 0,4
11.11.2019 12:00:00 6,3 4,8 5,6 7,3 12,2 33 18 49 27 S 1001,9 35 1,0
11.11.2019 11:00:00 5,9 4,9 5,4 7,2 12,2 29 16 47 26 S 1003,0 6 1,2
11.11.2019 10:00:00 5,9 4,1 5,9 7,2 12,2 29 16 56 31 S 1003,6 19 0,0
11.11.2019 09:00:00 6,0 4,2 6,0 7,2 12,3 32 17 50 27 S 1004,6 20 0,0
11.11.2019 08:00:00 6,1 4,3 6,1 7,1 12,2 24 13 41 22 S 1004,8 25 0,0
11.11.2019 07:00:00 6,4 4,6 6,2 7,1 12,2 25 13 39 21 S 1006,0 20 0,0
11.11.2019 06:00:00 6,4 4,6 6,0 7,1 12,3 22 12 37 20 S 1007,5 18 0,0
11.11.2019 05:00:00 6,5 4,7 6,2 7,0 12,3 19 11 32 18 S 1008,4 18 0,0
11.11.2019 04:00:00 6,7 5,2 6,3 6,9 12,3 22 12 34 18 S 1009,5 13 0,0
11.11.2019 03:00:00 6,4 5,2 6,0 6,8 12,3 16 8 24 13 S 1011,0 13 0,0
11.11.2019 02:00:00 6,0 5,1 5,4 6,8 12,3 12 7 19 10 S 1011,6 16 0,0
11.11.2019 01:00:00 5,4 4,7 4,5 6,7 12,3 10 6 16 9 SSE 1012,4 9 0,0
11.11.2019 00:00:00 4,4 4,0 3,4 6,7 12,3 8 4 11 6 SE 1012,9 8 0,0
10.11.2019 23:00:00 3,5 3,1 1,7 6,8 12,3 4 2 11 6 SSE 1013,2 4,5 0,0
10.11.2019 22:00:00 2,9 2,0 0,3 6,9 12,3 5 3 9 5 ESE 1013,6 2,7 0,0
10.11.2019 21:00:00 3,6 2,6 0,8 7,1 12,4 4 2 6 3 ENE 1013,5 7 0,0
10.11.2019 20:00:00 4,4 3,4 0,9 7,4 12,4 4 2 5 3 SE 1014,4 6 0,0
10.11.2019 19:00:00 4,6 3,1 1,0 7,6 12,4 3 1 6 4 NE 1014,7 11 0,0
10.11.2019 18:00:00 5,5 3,3 1,4 7,8 12,4 5 3 7 4 ENE 1014,8 17 0,0
10.11.2019 17:00:00 7,7 3,9 5,7 7,8 12,4 6 3 18 10 NE 1014,2 20 0,0
10.11.2019 16:00:00 9,0 4,4 11,0 7,7 12,4 10 6 22 12 ENE 1013,5 23 0,0
10.11.2019 15:00:00 9,2 4,8 12,4 7,4 12,4 14 8 21 12 NE 1012,8 19 0,2
10.11.2019 14:00:00 8,8 4,0 11,3 7,0 12,5 13 7 22 12 ENE 1012,2 18 0,0
10.11.2019 13:00:00 7,9 3,7 9,7 6,6 12,5 12 6 21 12 ENE 1012,1 18 0,0
10.11.2019 12:00:00 7,4 3,8 9,0 6,3 12,4 14 8 23 12 ENE 1012,2 13 0,0
10.11.2019 11:00:00 5,4 2,9 6,6 6,1 12,5 16 9 22 12 NE 1011,7 12 0,0
10.11.2019 10:00:00 3,8 2,2 3,1 6,1 12,5 14 8 21 11 NE 1011,2 10 0,0
10.11.2019 09:00:00 2,6 1,6 1,8 6,2 12,5 15 8 19 11 NE 1009,9 8 0,0
10.11.2019 08:00:00 2,2 1,3 1,7 6,3 12,5 11 6 20 11 NE 1009,1 8 0,0
10.11.2019 07:00:00 2,5 1,8 1,6 6,4 12,5 15 8 20 11 NE 1008,0 8 0,0
10.11.2019 06:00:00 2,5 1,8 1,7 6,5 12,5 9 5 16 8 NE 1007,6 5 0,0
10.11.2019 05:00:00 2,9 2,0 2,4 6,7 12,5 12 7 18 10 ENE 1006,8 6 0,0
10.11.2019 04:00:00 3,1 2,5 2,0 6,7 12,5 12 6 14 8 NE 1006,3 5 0,0
10.11.2019 03:00:00 3,4 2,7 1,6 6,8 12,6 11 6 13 7 ENE 1006,4 5 0,0
10.11.2019 02:00:00 2,8 1,8 2,0 6,9 12,6 9 5 12 6 ENE 1006,0 5 0,0
10.11.2019 01:00:00 3,3 2,6 2,2 6,9 12,6 8 4 13 7 E 1006,0 7 0,0
10.11.2019 00:00:00 2,4 1,7 1,4 7,1 12,6 8 5 11 6 E 1005,6 6 0,2
09.11.2019 23:00:00 2,2 1,2 1,4 7,3 12,6 8 4 13 7 ESE 1005,7 6 0,0
09.11.2019 22:00:00 3,0 1,7 2,4 7,5 12,6 9 5 19 10 SE 1005,8 12 0,0
09.11.2019 21:00:00 4,1 2,3 3,5 7,7 12,6 10 6 26 14 SE 1006,0 14 0,0
09.11.2019 20:00:00 4,4 2,6 3,7 7,9 12,6 14 7 21 12 SE 1006,0 17 0,0
09.11.2019 19:00:00 4,5 3,0 3,4 8,1 12,6 13 7 20 11 SSE 1006,2 17 0,0
09.11.2019 18:00:00 5,2 3,4 4,1 8,3 12,6 11 6 17 9 SE 1006,2 16 0,0
09.11.2019 17:00:00 6,9 4,0 6,4 8,4 12,7 10 5 21 12 SSE 1006,3 30 0,0
09.11.2019 16:00:00 8,7 4,7 9,0 8,4 12,7 16 8 28 15 S 1006,7 37 0,0
09.11.2019 15:00:00 8,6 4,2 9,0 8,2 12,7 19 11 31 17 S 1007,2 20 0,0
09.11.2019 14:00:00 9,5 3,7 9,2 7,9 12,7 16 9 28 15 SW 1007,6 59 0,0
09.11.2019 13:00:00 8,9 2,7 8,9 7,5 12,7 11 6 22 12 SW 1008,2 31 0,0
09.11.2019 12:00:00 8,6 3,6 9,7 7,2 12,7 12 7 23 12 SSW 1008,9 11 0,0
09.11.2019 11:00:00 7,4 4,7 7,1 6,9 12,7 15 8 24 13 SW 1009,5 10 0,0
09.11.2019 10:00:00 5,7 4,2 4,2 6,9 12,7 14 8 22 12 WSW 1010,0 9 0,0
09.11.2019 09:00:00 3,8 3,4 2,8 7,0 12,8 12 7 22 12 SW 1009,9 6 0,0
09.11.2019 08:00:00 3,7 3,3 2,5 7,1 12,8 13 7 19 10 SW 1009,8 6 0,0
09.11.2019 07:00:00 4,1 3,4 3,3 7,1 12,8 9 5 16 8 SW 1009,7 6 0,0
09.11.2019 06:00:00 4,6 4,2 3,4 7,2 12,8 12 7 21 11 SW 1009,8 7 0,0
09.11.2019 05:00:00 4,5 3,9 3,7 7,2 12,8 9 5 20 11 WSW 1009,9 7 0,2
09.11.2019 04:00:00 4,1 3,7 2,7 7,3 12,8 8 4 18 10 SW 1009,7 5 0,0
09.11.2019 03:00:00 4,2 3,5 3,3 7,5 12,8 13 7 19 11 SW 1009,8 6 0,0
09.11.2019 02:00:00 4,7 4,1 3,0 7,6 12,8 14 8 21 11 SW 1009,6 7 0,0
09.11.2019 01:00:00 4,7 4,1 3,9 7,7 12,8 11 6 18 10 SW 1009,6 6 0,0
09.11.2019 00:00:00 4,9 4,6 4,2 7,6 12,8 11 6 17 9 SW 1009,6 6 0,0
08.11.2019 23:00:00 4,3 4,0 2,8 7,7 12,8 9 5 12 6 SW 1009,7 3,6 0,2
08.11.2019 22:00:00 3,1 2,7 1,7 7,9 12,9 11 6 16 9 W 1009,7 3,5 0,0
08.11.2019 21:00:00 3,2 2,6 1,7 8,1 12,9 11 6 14 7 SW 1009,4 2,9 0,0
08.11.2019 20:00:00 4,0 3,4 2,7 8,4 12,9 9 5 11 6 WSW 1009,0 0,5 0,0
08.11.2019 19:00:00 4,6 4,0 2,4 8,6 12,9 5 3 12 7 SSW 1008,7 6 0,0
08.11.2019 18:00:00 4,7 3,4 3,3 8,8 12,9 8 4 14 8 W 1008,5 9 0,0
08.11.2019 17:00:00 5,7 4,0 5,4 8,8 12,9 9 5 16 9 W 1008,0 16 0,0
08.11.2019 16:00:00 6,7 4,4 7,2 8,8 12,9 11 6 18 10 WSW 1007,2 19 0,0
08.11.2019 15:00:00 7,3 4,6 7,8 8,5 12,9 13 7 23 12 W 1006,6 25 0,0
08.11.2019 14:00:00 8,1 5,2 9,5 8,1 12,9 9 5 16 9 W 1006,2 19 0,0
08.11.2019 13:00:00 7,6 4,9 8,2 7,6 12,9 5 3 13 7 WSW 1005,9 23 0,0
08.11.2019 12:00:00 5,9 4,5 6,1 7,2 12,9 8 5 19 11 S 1006,0 17 0,0
08.11.2019 11:00:00 4,9 3,9 6,1 6,9 12,9 11 6 18 10 S 1005,9 11 0,0
08.11.2019 10:00:00 4,5 4,1 2,4 6,9 12,9 4 2 10 5 SSE 1005,6 24 0,0
08.11.2019 09:00:00 2,0 1,7 0,4 7,0 12,9 5 3 12 7 SSE 1005,1 10 0,0
08.11.2019 08:00:00 1,5 1,2 0,0 7,1 13,0 8 4 10 6 SE 1004,2 0,9 0,0
08.11.2019 07:00:00 1,9 1,5 -0,5 7,3 13,0 6 4 18 10 SE 1003,6 8 0,0
08.11.2019 06:00:00 2,0 1,6 0,2 7,5 13,0 11 6 18 10 SE 1003,1 15 0,0
08.11.2019 05:00:00 2,1 1,5 1,2 7,6 13,0 7 4 17 9 SSE 1002,5 19 0,0
08.11.2019 04:00:00 2,4 1,7 1,7 7,8 13,0 10 6 13 7 SE 1002,1 19 0,2
08.11.2019 03:00:00 2,8 2,1 1,5 8,0 13,0 10 5 16 9 SE 1001,7 27 0,0
08.11.2019 02:00:00 3,0 2,1 1,8 8,2 13,0 6 3 13 7 ESE 1001,4 20 0,0
08.11.2019 01:00:00 3,3 2,0 2,4 8,4 13,0 8 5 14 8 SE 1001,3 33 0,0
08.11.2019 00:00:00 4,3 2,6 3,4 8,6 13,0 8 4 20 11 S 1001,0 40 0,0
07.11.2019 23:00:00 4,1 2,4 3,2 8,8 13,0 10 5 16 8 SSE 1000,8 36 0,0
07.11.2019 22:00:00 5,1 2,9 3,5 9,0 13,0 11 6 18 10 SSE 1000,5 40 0,0
07.11.2019 21:00:00 4,7 2,9 3,3 9,3 13,0 8 4 19 11 S 1000,1 17 0,0
07.11.2019 20:00:00 5,6 3,6 4,7 9,5 13,0 9 5 22 12 S 1000,0 45 0,0
07.11.2019 19:00:00 5,6 3,6 4,6 9,7 13,0 11 6 22 12 S 999,5 60 0,0
07.11.2019 18:00:00 6,9 3,7 6,3 9,9 13,0 16 9 47 25 SSW 998,9 60 0,0
07.11.2019 17:00:00 8,0 3,6 7,7 10,1 13,0 24 13 43 23 SSW 998,0 60 0,0
07.11.2019 16:00:00 9,0 4,6 7,6 10,1 13,0 26 14 53 29 SW 997,3 28 0,0
07.11.2019 15:00:00 9,1 4,3 8,0 10,2 13,0 31 17 46 25 SW 996,6 28 0,0
07.11.2019 14:00:00 8,4 4,6 7,1 10,3 13,0 34 18 70 38 SW 995,8 38 0,2
07.11.2019 13:00:00 10,5 6,1 10,3 10,1 13,0 28 15 45 24 SW 994,7 46 0,0
07.11.2019 12:00:00 10,7 6,6 8,6 9,9 13,0 28 15 41 22 WSW 993,8 26 0,0
07.11.2019 11:00:00 8,7 6,3 7,7 9,8 13,0 23 13 46 25 W 992,9 54 0,8
07.11.2019 10:00:00 8,7 7,9 8,2 9,8 13,1 22 12 35 19 SSE 991,8 6 1,2
07.11.2019 09:00:00 8,4 7,6 8,1 9,8 13,1 21 11 34 18 SE 992,0 7 2,2
07.11.2019 08:00:00 8,6 7,7 8,3 9,8 13,1 22 12 35 19 SE 992,4 7 1,2
07.11.2019 07:00:00 8,7 7,6 8,3 9,8 13,1 20 11 31 17 SE 993,0 7 0,4
07.11.2019 06:00:00 8,6 7,5 8,3 9,8 13,1 17 9 29 16 ESE 994,0 12 0,0
07.11.2019 05:00:00 8,3 7,2 8,1 9,8 13,1 18 10 35 19 SE 995,3 9 0,0
07.11.2019 04:00:00 8,1 7,2 7,6 9,8 13,1 16 9 31 17 SSE 996,1 11 0,0
07.11.2019 03:00:00 8,3 7,4 7,8 9,8 13,1 16 9 26 14 SSE 997,1 11 0,0
07.11.2019 02:00:00 8,3 7,4 8,0 9,9 13,1 14 8 25 13 SE 997,9 11 0,0
07.11.2019 01:00:00 8,1 7,7 7,4 9,9 13,1 11 6 16 9 SE 999,2 9 0,0
07.11.2019 00:00:00 7,5 7,1 7,2 9,9 13,1 8 4 18 10 SE 1000,0 6 0,0
06.11.2019 23:00:00 7,4 7,0 6,9 10,0 13,1 9 5 15 8 SE 1000,9 8 0,0
06.11.2019 22:00:00 7,0 6,4 6,2 10,1 13,1 9 5 13 7 SSE 1001,9 10 0,0
06.11.2019 21:00:00 6,6 5,7 5,5 10,3 13,1 4 2 10 5 SE 1002,5 9 0,0
06.11.2019 20:00:00 7,0 5,9 5,4 10,5 13,1 6 3 10 5 S 1003,1 10 0,0
06.11.2019 19:00:00 7,8 6,3 6,3 10,7 13,1 6 3 8 4 S 1003,4 20 0,0
06.11.2019 18:00:00 8,5 6,6 8,1 10,9 13,1 8 4 12 6 SSW 1003,8 26 0,0
06.11.2019 17:00:00 9,3 6,9 8,8 10,9 13,1 9 5 13 7 SW 1003,8 33 0,0
06.11.2019 16:00:00 9,9 7,0 10,1 10,9 13,1 7 4 16 9 SSW 1003,6 42 0,0
06.11.2019 15:00:00 10,4 7,6 10,0 10,8 13,1 11 6 16 9 SW 1004,0 36 0,0
06.11.2019 14:00:00 9,7 7,5 9,5 10,7 13,2 5 3 13 7 SW 1004,5 43 0,0
06.11.2019 13:00:00 9,0 7,6 9,1 10,6 13,1 11 6 26 14 NNW 1004,6 8 0,2
06.11.2019 12:00:00 9,8 8,4 10,1 10,4 13,2 15 8 23 13 NW 1004,7 16 0,2
06.11.2019 11:00:00 9,7 8,5 10,1 10,3 13,1 15 8 22 12 NW 1004,6 9 0,0
06.11.2019 10:00:00 9,5 8,9 9,3 10,2 13,2 10 5 19 10 NW 1004,4 6 0,4
06.11.2019 09:00:00 9,2 8,6 8,8 10,1 13,2 10 5 30 16 NNW 1004,1 10 0,8
06.11.2019 08:00:00 9,3 8,7 9,1 10,1 13,2 19 10 29 16 NNW 1003,3 5 0,4
06.11.2019 07:00:00 9,4 8,9 8,5 10,0 13,2 15 8 22 12 NNW 1002,3 10 0,0
06.11.2019 06:00:00 8,6 8,5 7,6 10,0 13,2 9 5 15 8 WNW 1001,9 6 0,0
06.11.2019 05:00:00 8,2 7,9 7,1 10,1 13,2 3 2 8 5 W 1001,5 1,3 0,0
06.11.2019 04:00:00 8,2 7,9 7,2 10,1 13,2 3 2 8 4 WSW 1001,2 0,3 0,0
06.11.2019 03:00:00 8,2 7,9 7,3 10,1 13,2 4 2 13 7 SW 1001,1 6 0,0
06.11.2019 02:00:00 7,8 7,4 7,3 10,2 13,2 6 3 10 5 WSW 1001,1 6 0,0
06.11.2019 01:00:00 7,5 7,2 6,2 10,3 13,2 5 3 14 8 SW 1001,0 3,3 0,0
06.11.2019 00:00:00 7,7 7,3 4,4 10,5 13,2 11 6 15 8 SW 1000,7 0,5 0,0

tt = Température de l'air
td = dewpoint
tt 5cm = Température de l'air 5cm
tt -20cm = Température de l'air -20cm
tt -100cm = Température de l'air -100cm
ff = Vitesse du vent
fx = gusts
dd = Direction du vent
ppp = reduced air pressure
vv = visibility
rr = Quantités de précipitations

stations d'obs. à proximité